QPF
0.04 0.03 0.05 0.05 0.03 0.02 0.02 0.02 0.02 0.02 0.05 0.08 0.06 0.05 0.04 0.03 0.04 0.05 0.05 0.04 0.04 0.03 0.04 0.04 0.04 0.05 0.05 0.06 0.08 0.12 0.09 0.07 0.08 0.08 0.10 0.10 0.10 0.11 0.12 0.10 0.09 0.05 0.06
0.02 0.03 0.05 0.04 0.03 0.02 0.02 0.03 0.04 0.03 0.04 0.06 0.06 0.05 0.04 0.03 0.05 0.05 0.06 0.06 0.04 0.03 0.02 0.04 0.04 0.04 0.05 0.06 0.12 0.13 0.08 0.07 0.07 0.06 0.09 0.11 0.11 0.12 0.10 0.08 0.07 0.07 0.07
0.01 0.02 0.04 0.03 0.03 0.02 0.03 0.03 0.05 0.05 0.05 0.05 0.06 0.03 0.03 0.03 0.02 0.03 0.05 0.07 0.06 0.03 0.04 0.05 0.05 0.04 0.05 0.07 0.14 0.16 0.14 0.14 0.12 0.09 0.08 0.06 0.09 0.13 0.11 0.09 0.08 0.08 0.07
0.01 0.03 0.04 0.03 0.02 0.02 0.02 0.02 0.03 0.05 0.04 0.04 0.05 0.04 0.02 0.02 0.02 0.03 0.06 0.07 0.05 0.04 0.05 0.07 0.07 0.04 0.05 0.06 0.12 0.16 0.18 0.15 0.12 0.08 0.04 0.05 0.06 0.12 0.12 0.10 0.09 0.05 0.05
0.01 0.03 0.08 0.05 0.03 0.02 0.03 0.03 0.03 0.04 0.03 0.04 0.06 0.06 0.04 0.03 0.04 0.05 0.05 0.08 0.07 0.05 0.05 0.07 0.07 0.04 0.04 0.06 0.08 0.11 0.11 0.11 0.12 0.06 0.02 0.03 0.04 0.08 0.10 0.09 0.11 0.08 0.06
0.01 0.03 0.06 0.08 0.06 0.06 0.07 0.08 0.08 0.06 0.04 0.06 0.07 0.08 0.06 0.05 0.08 0.10 0.08 0.09 0.07 0.06 0.06 0.06 0.07 0.06 0.05 0.05 0.05 0.08 0.10 0.10 0.08 0.04 0.02 0.03 0.05 0.07 0.09 0.09 0.11 0.11 0.08
0.00 0.01 0.03 0.04 0.04 0.06 0.07 0.08 0.08 0.08 0.07 0.07 0.08 0.11 0.07 0.05 0.09 0.14 0.15 0.12 0.08 0.07 0.07 0.07 0.07 0.05 0.04 0.05 0.05 0.05 0.06 0.07 0.04 0.02 0.02 0.03 0.06 0.11 0.11 0.11 0.11 0.09 0.09
0.00 0.00 0.01 0.02 0.01 0.01 0.03 0.04 0.06 0.06 0.06 0.07 0.09 0.09 0.08 0.08 0.12 0.20 0.19 0.15 0.10 0.06 0.06 0.06 0.05 0.03 0.03 0.05 0.06 0.05 0.06 0.05 0.03 0.04 0.03 0.03 0.08 0.11 0.10 0.10 0.09 0.08 0.07
0.00 0.00 0.00 0.01 0.03 0.01 0.03 0.02 0.02 0.02 0.04 0.06 0.06 0.06 0.06 0.05 0.10 0.17 0.14 0.10 0.07 0.05 0.05 0.06 0.06 0.05 0.04 0.05 0.06 0.06 0.05 0.05 0.03 0.03 0.04 0.05 0.08 0.08 0.08 0.08 0.08 0.08 0.07
0.00 0.00 0.01 0.01 0.01 0.00 0.01 0.02 0.02 0.03 0.03 0.03 0.03 0.03 0.03 0.03 0.08 0.12 0.10 0.08 0.07 0.07 0.07 0.07 0.05 0.04 0.05 0.07 0.06 0.04 0.04 0.03 0.01 0.01 0.02 0.04 0.09 0.06 0.05 0.05 0.05 0.06 0.07
0.01 0.01 0.01 0.02 0.02 0.00 0.00 0.01 0.02 0.02 0.03 0.03 0.02 0.03 0.02 0.01 0.04 0.08 0.09 0.09 0.09 0.08 0.07 0.06 0.05 0.04 0.05 0.06 0.05 0.04 0.03 0.02 0.01 0.01 0.03 0.07 0.10 0.08 0.07 0.05 0.04 0.05 0.06
0.01 0.01 0.01 0.01 0.01 0.01 0.00 0.01 0.01 0.00 0.01 0.01 0.01 0.01 0.01 0.01 0.02 0.03 0.06 0.08 0.07 0.06 0.05 0.04 0.04 0.03 0.02 0.02 0.02 0.02 0.01 0.01 0.01 0.02 0.06 0.11 0.12 0.08 0.07 0.06 0.06 0.06 0.05
0.01 0.01 0.01 0.01 0.02 0.01 0.00 0.01 0.01 0.01 0.01 0.01 0.01 0.01 0.01 0.01 0.01 0.02 0.03 0.03 0.03 0.02 0.02 0.02 0.02 0.01 0.02 0.02 0.02 0.02 0.01 0.02 0.01 0.01 0.04 0.10 0.11 0.08 0.06 0.06 0.06 0.07 0.06
0.00 0.00 0.01 0.01 0.01 0.01 0.00 0.00 0.00 0.00 0.00 0.01 0.01 0.00 0.00 0.00 0.01 0.01 0.02 0.02 0.03 0.03 0.03 0.02 0.02 0.03 0.02 0.02 0.02 0.02 0.02 0.02 0.01 0.01 0.03 0.08 0.08 0.06 0.06 0.06 0.05 0.06 0.08
0.00 0.00 0.00 0.01 0.01 0.01 0.00 0.00 0.00 0.00 0.01 0.01 0.00 0.00 0.00 0.00 0.01 0.01 0.01 0.01 0.02 0.03 0.03 0.03 0.03 0.04 0.02 0.01 0.01 0.01 0.01 0.02 0.01 0.01 0.01 0.05 0.06 0.05 0.06 0.06 0.06 0.07 0.09
0.01 0.00 0.00 0.00 0.00 0.00 0.00 0.00 0.00 0.00 0.01 0.00 0.00 0.00 0.00 0.00 0.01 0.01 0.01 0.01 0.01 0.01 0.02 0.03 0.03 0.02 0.02 0.01 0.01 0.01 0.01 0.01 0.01 0.01 0.01 0.02 0.02 0.03 0.05 0.06 0.06 0.09 0.12
0.01 0.00 0.00 0.00 0.01 0.01 0.00 0.00 0.00 0.00 0.00 0.00 0.00 0.00 0.00 0.00 0.01 0.01 0.00 0.01 0.02 0.01 0.01 0.02 0.02 0.02 0.02 0.02 0.02 0.03 0.02 0.02 0.02 0.02 0.01 0.01 0.01 0.03 0.03 0.04 0.06 0.09 0.09
0.00 0.00 0.00 0.01 0.01 0.00 0.00 0.00 0.00 0.00 0.00 0.00 0.00 0.00 0.00 0.00 0.01 0.00 0.01 0.01 0.01 0.01 0.01 0.01 0.01 0.01 0.01 0.01 0.02 0.02 0.02 0.02 0.02 0.03 0.03 0.04 0.02 0.03 0.03 0.04 0.07 0.10 0.10
0.01 0.01 0.01 0.01 0.00 0.01 0.01 0.01 0.01 0.00 0.00 0.00 0.00 0.00 0.00 0.00 0.01 0.01 0.01 0.01 0.02 0.02 0.02 0.01 0.01 0.01 0.01 0.01 0.01 0.02 0.02 0.02 0.02 0.02 0.03 0.08 0.07 0.04 0.04 0.04 0.07 0.09 0.10
0.01 0.01 0.01 0.02 0.02 0.01 0.01 0.01 0.01 0.01 0.01 0.00 0.00 0.00 0.00 0.01 0.01 0.00 0.00 0.01 0.03 0.04 0.03 0.02 0.02 0.03 0.03 0.02 0.01 0.02 0.02 0.02 0.01 0.01 0.03 0.06 0.09 0.05 0.04 0.05 0.07 0.09 0.09
0.01 0.01 0.01 0.02 0.02 0.01 0.02 0.01 0.02 0.02 0.01 0.01 0.00 0.00 0.00 0.00 0.00 0.00 0.00 0.01 0.02 0.04 0.04 0.02 0.03 0.04 0.05 0.04 0.03 0.03 0.03 0.02 0.01 0.01 0.04 0.08 0.12 0.08 0.06 0.07 0.08 0.09 0.09
0.01 0.01 0.01 0.01 0.01 0.02 0.03 0.02 0.02 0.02 0.01 0.01 0.01 0.00 0.00 0.00 0.00 0.00 0.00 0.02 0.02 0.05 0.04 0.03 0.02 0.05 0.06 0.05 0.03 0.03 0.03 0.03 0.02 0.01 0.03 0.09 0.11 0.10 0.07 0.07 0.07 0.08 0.09
0.01 0.01 0.01 0.01 0.02 0.02 0.02 0.02 0.01 0.02 0.01 0.01 0.01 0.01 0.01 0.01 0.00 0.00 0.01 0.02 0.03 0.05 0.06 0.04 0.03 0.04 0.06 0.07 0.04 0.02 0.01 0.02 0.02 0.01 0.02 0.06 0.09 0.09 0.07 0.07 0.07 0.08 0.09
0.01 0.01 0.01 0.01 0.01 0.01 0.01 0.01 0.01 0.01 0.02 0.02 0.02 0.03 0.02 0.02 0.01 0.01 0.01 0.02 0.04 0.05 0.06 0.05 0.05 0.04 0.05 0.07 0.05 0.02 0.01 0.00 0.01 0.01 0.01 0.03 0.03 0.04 0.05 0.06 0.06 0.07 0.09
0.01 0.01 0.02 0.02 0.01 0.01 0.01 0.02 0.02 0.02 0.03 0.03 0.03 0.04 0.04 0.03 0.03 0.03 0.02 0.04 0.06 0.05 0.06 0.06 0.06 0.05 0.05 0.04 0.03 0.03 0.02 0.01 0.01 0.01 0.01 0.02 0.03 0.03 0.03 0.04 0.05 0.07 0.08
0.01 0.03 0.03 0.03 0.04 0.04 0.04 0.04 0.03 0.03 0.05 0.05 0.05 0.05 0.05 0.04 0.04 0.05 0.04 0.04 0.05 0.06 0.06 0.06 0.06 0.07 0.06 0.04 0.02 0.01 0.02 0.02 0.03 0.01 0.01 0.02 0.02 0.02 0.02 0.03 0.03 0.05 0.05
MSLP
1013.32 1012.75 1012.36 1012.16 1012.11 1012.16 1012.22 1012.23 1012.14 1011.95 1011.70 1011.43 1011.21 1011.07 1011.03 1011.08 1011.18 1011.29 1011.37 1011.41 1011.41 1011.39 1011.39 1011.42 1011.51 1011.65 1011.82 1011.98 1012.11 1012.19 1012.23 1012.24 1012.26 1012.29 1012.37 1012.49 1012.64 1012.81 1012.96 1013.07 1013.15 1013.18 1013.20
1013.05 1012.59 1012.27 1012.12 1012.10 1012.15 1012.20 1012.18 1012.06 1011.85 1011.59 1011.33 1011.12 1011.00 1010.99 1011.06 1011.19 1011.32 1011.42 1011.48 1011.50 1011.50 1011.51 1011.55 1011.63 1011.74 1011.87 1011.98 1012.07 1012.12 1012.14 1012.15 1012.18 1012.24 1012.34 1012.48 1012.64 1012.80 1012.92 1013.00 1013.03 1013.05 1013.07
1012.67 1012.31 1012.08 1012.00 1012.02 1012.09 1012.13 1012.11 1011.98 1011.77 1011.51 1011.26 1011.06 1010.95 1010.94 1011.01 1011.12 1011.24 1011.34 1011.41 1011.45 1011.48 1011.51 1011.57 1011.65 1011.75 1011.85 1011.93 1011.99 1012.02 1012.04 1012.06 1012.12 1012.22 1012.35 1012.51 1012.67 1012.80 1012.88 1012.92 1012.93 1012.93 1012.95
1012.21 1011.96 1011.83 1011.82 1011.89 1011.99 1012.05 1012.03 1011.91 1011.71 1011.46 1011.22 1011.02 1010.89 1010.85 1010.88 1010.95 1011.04 1011.12 1011.18 1011.24 1011.29 1011.36 1011.45 1011.56 1011.67 1011.77 1011.84 1011.89 1011.92 1011.96 1012.01 1012.10 1012.23 1012.39 1012.56 1012.70 1012.81 1012.86 1012.86 1012.83 1012.82 1012.84
1011.76 1011.60 1011.56 1011.62 1011.74 1011.87 1011.96 1011.95 1011.85 1011.66 1011.42 1011.17 1010.96 1010.81 1010.72 1010.69 1010.70 1010.73 1010.77 1010.82 1010.88 1010.97 1011.08 1011.22 1011.37 1011.52 1011.64 1011.73 1011.80 1011.84 1011.90 1011.98 1012.11 1012.27 1012.44 1012.61 1012.74 1012.81 1012.82 1012.79 1012.74 1012.72 1012.75
1011.39 1011.32 1011.35 1011.47 1011.63 1011.78 1011.87 1011.88 1011.78 1011.60 1011.36 1011.12 1010.89 1010.70 1010.56 1010.47 1010.40 1010.37 1010.37 1010.40 1010.46 1010.58 1010.74 1010.93 1011.14 1011.33 1011.49 1011.62 1011.71 1011.79 1011.87 1011.98 1012.13 1012.31 1012.48 1012.64 1012.74 1012.77 1012.75 1012.68 1012.62 1012.60 1012.65
1011.17 1011.16 1011.24 1011.39 1011.57 1011.73 1011.81 1011.81 1011.71 1011.52 1011.29 1011.04 1010.80 1010.59 1010.41 1010.26 1010.13 1010.04 1009.99 1009.99 1010.06 1010.20 1010.40 1010.64 1010.90 1011.15 1011.36 1011.52 1011.64 1011.75 1011.86 1011.99 1012.15 1012.32 1012.49 1012.62 1012.68 1012.68 1012.62 1012.52 1012.45 1012.43 1012.50
1011.13 1011.15 1011.26 1011.43 1011.60 1011.73 1011.79 1011.76 1011.63 1011.44 1011.21 1010.96 1010.73 1010.51 1010.31 1010.12 1009.96 1009.83 1009.74 1009.72 1009.77 1009.92 1010.14 1010.42 1010.72 1011.01 1011.25 1011.45 1011.61 1011.74 1011.86 1012.00 1012.15 1012.31 1012.44 1012.53 1012.56 1012.51 1012.41 1012.30 1012.21 1012.20 1012.28
1011.24 1011.29 1011.41 1011.57 1011.71 1011.80 1011.81 1011.73 1011.57 1011.36 1011.13 1010.91 1010.69 1010.50 1010.31 1010.13 1009.96 1009.80 1009.69 1009.64 1009.68 1009.81 1010.03 1010.31 1010.63 1010.94 1011.21 1011.43 1011.61 1011.75 1011.88 1012.01 1012.14 1012.26 1012.35 1012.39 1012.37 1012.28 1012.14 1012.00 1011.90 1011.89 1011.97
1011.44 1011.51 1011.64 1011.79 1011.89 1011.93 1011.88 1011.74 1011.54 1011.32 1011.09 1010.90 1010.73 1010.58 1010.44 1010.30 1010.14 1009.99 1009.86 1009.78 1009.78 1009.88 1010.08 1010.34 1010.65 1010.96 1011.24 1011.47 1011.66 1011.81 1011.93 1012.04 1012.13 1012.21 1012.25 1012.23 1012.15 1012.02 1011.84 1011.68 1011.56 1011.53 1011.61
1011.68 1011.78 1011.92 1012.04 1012.12 1012.10 1011.98 1011.79 1011.56 1011.32 1011.11 1010.96 1010.85 1010.77 1010.71 1010.62 1010.50 1010.37 1010.23 1010.12 1010.09 1010.14 1010.28 1010.50 1010.78 1011.07 1011.34 1011.58 1011.77 1011.91 1012.02 1012.10 1012.16 1012.19 1012.17 1012.10 1011.97 1011.79 1011.57 1011.37 1011.22 1011.17 1011.23
1011.92 1012.04 1012.20 1012.31 1012.35 1012.29 1012.12 1011.89 1011.63 1011.38 1011.20 1011.09 1011.05 1011.06 1011.07 1011.05 1010.99 1010.88 1010.74 1010.61 1010.53 1010.53 1010.61 1010.78 1011.01 1011.27 1011.53 1011.76 1011.95 1012.09 1012.19 1012.24 1012.27 1012.25 1012.18 1012.06 1011.88 1011.65 1011.39 1011.16 1010.97 1010.88 1010.90
1012.12 1012.28 1012.44 1012.56 1012.58 1012.49 1012.29 1012.03 1011.75 1011.52 1011.36 1011.30 1011.32 1011.40 1011.48 1011.53 1011.52 1011.44 1011.31 1011.17 1011.05 1010.99 1011.02 1011.14 1011.32 1011.56 1011.80 1012.02 1012.21 1012.35 1012.43 1012.47 1012.47 1012.41 1012.30 1012.13 1011.91 1011.65 1011.36 1011.09 1010.86 1010.73 1010.71
1012.28 1012.46 1012.64 1012.76 1012.78 1012.68 1012.48 1012.21 1011.94 1011.71 1011.58 1011.55 1011.62 1011.75 1011.89 1011.99 1012.02 1011.97 1011.86 1011.71 1011.57 1011.48 1011.47 1011.54 1011.69 1011.90 1012.13 1012.36 1012.55 1012.68 1012.77 1012.80 1012.77 1012.68 1012.54 1012.35 1012.10 1011.81 1011.50 1011.20 1010.95 1010.77 1010.71
1012.42 1012.61 1012.80 1012.92 1012.95 1012.86 1012.67 1012.43 1012.17 1011.97 1011.85 1011.84 1011.93 1012.08 1012.25 1012.38 1012.44 1012.42 1012.32 1012.18 1012.04 1011.94 1011.91 1011.97 1012.10 1012.30 1012.53 1012.75 1012.94 1013.09 1013.17 1013.19 1013.15 1013.05 1012.90 1012.69 1012.43 1012.13 1011.82 1011.51 1011.23 1011.03 1010.92
1012.55 1012.73 1012.91 1013.03 1013.07 1013.01 1012.86 1012.65 1012.44 1012.26 1012.16 1012.16 1012.24 1012.38 1012.54 1012.67 1012.74 1012.74 1012.67 1012.56 1012.44 1012.36 1012.34 1012.40 1012.53 1012.73 1012.95 1013.18 1013.37 1013.52 1013.60 1013.62 1013.57 1013.47 1013.31 1013.10 1012.85 1012.56 1012.26 1011.96 1011.68 1011.47 1011.34
1012.69 1012.83 1012.98 1013.10 1013.15 1013.13 1013.03 1012.88 1012.72 1012.57 1012.49 1012.47 1012.53 1012.63 1012.76 1012.87 1012.94 1012.95 1012.92 1012.84 1012.77 1012.73 1012.74 1012.81 1012.96 1013.16 1013.38 1013.60 1013.79 1013.93 1014.01 1014.02 1013.97 1013.87 1013.72 1013.52 1013.29 1013.03 1012.75 1012.48 1012.22 1012.02 1011.89
1012.84 1012.92 1013.03 1013.12 1013.19 1013.22 1013.18 1013.11 1013.01 1012.90 1012.83 1012.79 1012.81 1012.86 1012.93 1013.00 1013.06 1013.09 1013.08 1013.06 1013.04 1013.05 1013.11 1013.21 1013.37 1013.57 1013.78 1013.99 1014.16 1014.29 1014.35 1014.36 1014.31 1014.20 1014.06 1013.88 1013.68 1013.45 1013.21 1012.98 1012.76 1012.58 1012.46
1012.99 1013.00 1013.05 1013.12 1013.20 1013.27 1013.31 1013.32 1013.29 1013.23 1013.17 1013.12 1013.08 1013.07 1013.08 1013.11 1013.15 1013.18 1013.21 1013.24 1013.28 1013.35 1013.44 1013.58 1013.74 1013.93 1014.12 1014.30 1014.45 1014.55 1014.60 1014.60 1014.54 1014.44 1014.31 1014.15 1013.96 1013.77 1013.57 1013.37 1013.19 1013.04 1012.95
1013.14 1013.08 1013.07 1013.11 1013.20 1013.31 1013.42 1013.51 1013.56 1013.55 1013.51 1013.44 1013.36 1013.29 1013.24 1013.22 1013.23 1013.27 1013.33 1013.41 1013.50 1013.62 1013.75 1013.89 1014.05 1014.22 1014.38 1014.52 1014.64 1014.71 1014.74 1014.72 1014.66 1014.57 1014.44 1014.29 1014.12 1013.95 1013.77 1013.61 1013.46 1013.34 1013.27
1013.29 1013.17 1013.10 1013.11 1013.20 1013.35 1013.53 1013.69 1013.80 1013.85 1013.83 1013.75 1013.64 1013.52 1013.42 1013.35 1013.34 1013.37 1013.45 1013.57 1013.70 1013.85 1014.00 1014.14 1014.28 1014.42 1014.54 1014.64 1014.72 1014.77 1014.78 1014.76 1014.70 1014.60 1014.48 1014.33 1014.16 1013.99 1013.83 1013.67 1013.54 1013.44 1013.38
1013.45 1013.28 1013.16 1013.15 1013.24 1013.41 1013.63 1013.85 1014.02 1014.12 1014.12 1014.04 1013.90 1013.74 1013.60 1013.50 1013.47 1013.50 1013.59 1013.72 1013.88 1014.04 1014.18 1014.31 1014.42 1014.52 1014.60 1014.66 1014.71 1014.74 1014.75 1014.73 1014.67 1014.58 1014.46 1014.30 1014.12 1013.94 1013.76 1013.59 1013.45 1013.35 1013.29
1013.60 1013.40 1013.26 1013.22 1013.30 1013.49 1013.74 1014.00 1014.21 1014.34 1014.36 1014.29 1014.14 1013.95 1013.78 1013.66 1013.61 1013.63 1013.72 1013.86 1014.01 1014.17 1014.30 1014.40 1014.47 1014.52 1014.56 1014.60 1014.63 1014.66 1014.68 1014.68 1014.64 1014.56 1014.43 1014.26 1014.06 1013.84 1013.63 1013.43 1013.26 1013.14 1013.07
1013.74 1013.55 1013.40 1013.34 1013.41 1013.59 1013.85 1014.12 1014.36 1014.51 1014.55 1014.48 1014.32 1014.13 1013.94 1013.80 1013.74 1013.75 1013.83 1013.96 1014.10 1014.23 1014.34 1014.40 1014.44 1014.46 1014.47 1014.49 1014.52 1014.57 1014.61 1014.64 1014.62 1014.56 1014.44 1014.26 1014.03 1013.77 1013.51 1013.26 1013.06 1012.90 1012.79
1013.84 1013.68 1013.54 1013.49 1013.55 1013.72 1013.96 1014.23 1014.47 1014.63 1014.67 1014.61 1014.46 1014.27 1014.08 1013.93 1013.85 1013.85 1013.92 1014.03 1014.15 1014.25 1014.32 1014.35 1014.36 1014.35 1014.35 1014.37 1014.42 1014.49 1014.57 1014.63 1014.65 1014.61 1014.50 1014.32 1014.07 1013.77 1013.47 1013.17 1012.92 1012.72 1012.58
1013.89 1013.78 1013.67 1013.62 1013.68 1013.83 1014.06 1014.31 1014.54 1014.70 1014.75 1014.69 1014.55 1014.37 1014.18 1014.04 1013.95 1013.94 1013.99 1014.08 1014.17 1014.24 1014.28 1014.28 1014.27 1014.25 1014.25 1014.28 1014.35 1014.46 1014.57 1014.68 1014.74 1014.73 1014.63 1014.45 1014.19 1013.87 1013.54 1013.21 1012.92 1012.68 1012.50
Thickness
5757 5761 5763 5764 5764 5765 5765 5765 5766 5766 5767 5767 5767 5768 5769 5769 5770 5770 5770 5770 5770 5770 5770 5770 5770 5771 5771 5771 5771 5771 5772 5770 5770 5770 5770 5769 5769 5769 5769 5769 5768 5768 5768
5759 5760 5761 5762 5763 5763 5763 5764 5764 5764 5765 5765 5765 5766 5766 5767 5767 5767 5768 5768 5768 5768 5768 5767 5768 5768 5768 5768 5769 5770 5772 5770 5768 5767 5767 5767 5766 5767 5767 5767 5766 5766 5766
5759 5759 5760 5761 5761 5761 5761 5761 5762 5762 5762 5762 5762 5763 5763 5764 5765 5765 5766 5766 5765 5765 5765 5765 5765 5765 5765 5765 5766 5768 5769 5767 5765 5764 5764 5763 5764 5764 5764 5764 5764 5764 5764
5759 5758 5758 5758 5759 5759 5759 5759 5759 5759 5759 5759 5760 5760 5760 5761 5762 5763 5763 5763 5763 5763 5762 5762 5762 5762 5762 5762 5762 5762 5763 5762 5761 5761 5761 5761 5761 5761 5761 5761 5761 5761 5761
5757 5756 5756 5756 5757 5757 5756 5756 5756 5756 5756 5757 5757 5757 5758 5758 5759 5760 5761 5760 5760 5760 5759 5759 5758 5758 5758 5758 5758 5758 5758 5758 5758 5757 5757 5757 5758 5758 5758 5758 5758 5758 5758
5755 5754 5754 5754 5754 5754 5754 5754 5754 5754 5754 5754 5754 5754 5754 5755 5757 5758 5758 5757 5756 5756 5756 5755 5755 5755 5755 5755 5755 5754 5755 5755 5754 5753 5753 5753 5754 5754 5755 5755 5755 5755 5755
5753 5753 5752 5752 5752 5752 5752 5751 5751 5751 5751 5751 5751 5751 5752 5752 5753 5754 5753 5753 5752 5752 5752 5751 5751 5751 5751 5751 5750 5750 5750 5750 5749 5749 5749 5749 5750 5751 5751 5751 5751 5751 5751
5753 5752 5751 5750 5750 5749 5749 5749 5748 5748 5747 5747 5748 5748 5748 5749 5749 5749 5749 5749 5748 5748 5748 5747 5747 5747 5747 5746 5746 5746 5746 5746 5745 5745 5745 5746 5746 5747 5747 5747 5747 5747 5747
5752 5750 5749 5748 5747 5747 5747 5746 5746 5745 5745 5744 5744 5744 5744 5744 5745 5745 5745 5745 5744 5744 5744 5743 5743 5742 5742 5742 5741 5741 5741 5741 5740 5741 5741 5741 5742 5743 5743 5743 5743 5743 5743
5749 5748 5747 5746 5745 5744 5744 5743 5743 5742 5742 5741 5740 5740 5740 5740 5740 5740 5740 5740 5740 5740 5739 5739 5738 5738 5737 5737 5736 5736 5736 5735 5735 5736 5736 5737 5738 5739 5739 5739 5738 5738 5739
5746 5745 5745 5744 5743 5742 5741 5740 5740 5739 5738 5738 5737 5736 5736 5735 5735 5735 5735 5735 5735 5735 5735 5734 5734 5733 5733 5732 5731 5731 5730 5730 5730 5731 5732 5733 5734 5734 5734 5734 5734 5734 5734
5742 5743 5743 5743 5742 5741 5740 5738 5737 5736 5735 5734 5734 5733 5732 5731 5731 5731 5731 5731 5731 5730 5730 5730 5729 5728 5727 5726 5726 5726 5725 5725 5726 5726 5727 5728 5729 5730 5730 5729 5729 5730 5730
5744 5744 5743 5742 5741 5740 5738 5737 5735 5733 5733 5732 5731 5730 5729 5728 5727 5727 5726 5726 5726 5725 5725 5724 5724 5723 5722 5722 5721 5720 5721 5720 5720 5720 5722 5723 5724 5725 5725 5725 5725 5725 5725
5743 5743 5743 5742 5740 5739 5737 5735 5733 5732 5731 5730 5729 5728 5727 5725 5724 5723 5722 5722 5721 5720 5720 5719 5718 5717 5717 5717 5716 5715 5715 5715 5715 5715 5716 5717 5719 5720 5720 5720 5720 5721 5721
5742 5742 5742 5741 5739 5737 5736 5734 5732 5730 5729 5728 5727 5726 5725 5723 5721 5720 5719 5718 5717 5716 5716 5715 5714 5713 5712 5712 5711 5710 5710 5709 5709 5709 5710 5712 5713 5714 5715 5716 5716 5716 5717
5742 5742 5742 5740 5739 5737 5734 5732 5730 5729 5727 5726 5725 5724 5722 5721 5719 5717 5716 5715 5714 5713 5712 5711 5710 5708 5707 5706 5705 5705 5705 5704 5704 5704 5705 5706 5707 5709 5710 5711 5711 5712 5712
5743 5742 5741 5740 5738 5735 5733 5731 5729 5728 5726 5724 5723 5722 5720 5719 5717 5715 5713 5712 5710 5709 5709 5707 5705 5704 5703 5701 5700 5700 5700 5699 5699 5700 5700 5701 5702 5704 5705 5706 5707 5706 5707
5743 5741 5740 5740 5736 5734 5731 5729 5728 5726 5724 5722 5721 5719 5718 5716 5715 5713 5710 5709 5707 5706 5705 5703 5701 5698 5696 5695 5695 5694 5694 5694 5694 5695 5695 5696 5697 5698 5699 5700 5701 5701 5701
5744 5741 5738 5737 5734 5731 5730 5728 5725 5723 5722 5720 5719 5717 5715 5714 5712 5710 5708 5706 5705 5703 5701 5700 5696 5694 5691 5690 5690 5689 5689 5689 5689 5690 5690 5691 5692 5693 5693 5694 5695 5695 5696
5743 5740 5737 5735 5732 5730 5727 5724 5722 5720 5719 5717 5716 5715 5713 5711 5709 5707 5705 5703 5702 5699 5696 5695 5692 5690 5688 5686 5686 5684 5684 5684 5684 5684 5685 5685 5686 5688 5688 5688 5689 5690 5691
5740 5737 5735 5732 5729 5727 5723 5720 5716 5714 5714 5713 5713 5712 5710 5708 5707 5704 5702 5700 5698 5695 5693 5691 5689 5686 5684 5683 5680 5677 5677 5679 5679 5679 5680 5680 5681 5682 5682 5683 5684 5685 5685
5737 5735 5732 5730 5728 5726 5723 5720 5717 5714 5711 5711 5710 5708 5707 5705 5704 5702 5699 5697 5694 5692 5690 5688 5686 5682 5680 5680 5676 5672 5668 5669 5672 5675 5675 5675 5676 5677 5677 5678 5679 5680 5680
5735 5733 5732 5728 5726 5723 5721 5718 5714 5710 5707 5705 5704 5703 5703 5702 5701 5699 5697 5695 5692 5690 5688 5686 5685 5682 5677 5677 5676 5672 5665 5661 5663 5667 5669 5670 5670 5672 5673 5674 5674 5675 5676
5734 5733 5730 5727 5724 5721 5719 5714 5710 5705 5701 5700 5700 5699 5699 5698 5697 5696 5695 5693 5690 5688 5686 5685 5683 5681 5678 5674 5674 5673 5672 5668 5661 5658 5661 5664 5666 5667 5668 5669 5670 5671 5671
5734 5730 5727 5724 5722 5719 5716 5713 5708 5704 5701 5699 5698 5696 5695 5695 5694 5693 5691 5690 5688 5686 5684 5682 5681 5679 5677 5674 5672 5671 5669 5666 5664 5658 5654 5656 5659 5661 5663 5664 5665 5666 5666
5731 5728 5725 5721 5718 5716 5714 5710 5706 5702 5698 5696 5693 5692 5691 5690 5690 5689 5688 5687 5685 5683 5681 5680 5679 5677 5676 5674 5673 5671 5668 5665 5662 5658 5654 5652 5652 5656 5658 5659 5660 5661 5661